Reus, Spain

2:21 PM CEST en Abril 24, 2018 (GMT +0200)
Reus Air Base

Tiempo Historia de LERS - Abril, 2018

Change the Weather History Date:

Martes, Abril 17, 2018

  Actual Average Record
Temperature  
Temperatura media 60 ° F -  
Temperatura máxima 74 ° F 68 ° F 79 ° F (2016)
Temperatura mínima 46 ° F 54 ° F 41 ° F (2009)
Degree Days  
Grados día de calefacción 5    
Growing Degree Days 10 (Base 50)    
Moisture  
Punto de rocío 51 ° F    
Average Humidity 73    
Maximum Humidity 100    
Minimum Humidity 37    
Precipitación  
Precipitación 0.00 pul - - ()
Presión al nivel del mar  
Presión al nivel del mar 30.18 pul    
Viento  
Velocidad del viento 3 mph ()    
Velocidad máxima del viento 12 mph    
Max Gust Speed -    
Visibilidad 9.7 Millas    
Eventos      
Averages and records for this station are not official NWS values.
T = Trace of Precipitation, MM = Missing Value Source: Averaged Metar Reports

Daily Weather History Graph

Daily Weather History Graph

Search for Another Location

Airport or City:

Astronomía

Apr. 17, 2018 Salida Puesta
Hora real 7:13 AM CEST 8:37 PM CEST
Crepúsculo civil 6:44 AM CEST 9:06 PM CEST
Crepúsculo náutico 6:10 AM CEST 9:40 PM CEST
Crepúsculo astronómico 5:33 AM CEST 10:17 PM CEST
Luna 8:22 AM CEST (4/17) 10:16 PM CEST (4/17)
Horas de luz 14h 21m
Horas de luz
13h 23m
Luna nueva, 2% of the Moon is Illuminated
Abr 17
Luna nueva
Abr 22
Cuarto creciente
Abr 30
Luna llena
May 8
Cuarto menguante
May 15
Nueva

Hourly Weather History & Observations

Hora (CEST) Temp. Vientos helados Punto de rocío Humedad Presión Visibilidad Wind Dir Velocidad del viento Velocidad de ráfagas Precip Eventos Condiciones
12:00 AM 50.0 ° F - 50.0 ° F 100% 30.09 pul - Sin viento Sin viento - N/A   Despejado
12:30 AM 50.0 ° F - 50.0 ° F 100% 30.12 pul 5.6 mi Variable 1.2 mph - N/A   Desconocido
1:00 AM 50 ° F - 48 ° F 90% 30.13 pul 4 mi Norte 4.6 mph - -  
1:00 AM 48.2 ° F - 48.2 ° F 100% 30.12 pul 5.0 mi Norte 1.2 mph - N/A   Desconocido
1:30 AM 50.0 ° F - 50.0 ° F 100% 30.12 pul 6.2 mi Sin viento Sin viento - N/A   Desconocido
2:00 AM 51 ° F - 48 ° F 87% 30.14 pul 9 mi Norte 3.5 mph - -  
2:00 AM 50.0 ° F - 50.0 ° F 100% 30.12 pul 6.2 mi Norte 2.3 mph - N/A   Desconocido
2:30 AM 50.0 ° F - 50.0 ° F 100% 30.12 pul 6.2 mi Variable 2.3 mph - N/A   Desconocido
3:00 AM 49 ° F - 48 ° F 94% 30.14 pul 9 mi Sin viento Sin viento - -  
3:00 AM 50.0 ° F - 50.0 ° F 100% 30.12 pul 6.2 mi Sin viento Sin viento - N/A   Desconocido
3:30 AM 48.2 ° F - 48.2 ° F 100% 30.12 pul 6.2 mi Sin viento Sin viento - N/A   Desconocido
4:00 AM 49 ° F - 48 ° F 93% 30.15 pul 9 mi ONO 2.3 mph - -  
4:00 AM 50.0 ° F - 50.0 ° F 100% 30.12 pul 6.2 mi Variable 1.2 mph - N/A   Desconocido
4:30 AM 50.0 ° F - 50.0 ° F 100% 30.15 pul 6.2 mi Variable 1.2 mph - N/A   Desconocido
5:00 AM 49 ° F - 47 ° F 92% 30.16 pul 9 mi ONO 1.2 mph - -  
5:00 AM 50.0 ° F - 50.0 ° F 100% 30.15 pul 6.2 mi NO 1.2 mph - N/A   Desconocido
5:30 AM 50.0 ° F - 48.2 ° F 94% 30.15 pul 6.2 mi NO 1.2 mph - N/A   Desconocido
6:00 AM 48 ° F - 47 ° F 94% 30.16 pul 3 mi Norte 1.2 mph - -  
6:00 AM 48.2 ° F - 48.2 ° F 100% 30.15 pul 4.3 mi Sin viento Sin viento - N/A   Desconocido
6:30 AM 46.4 ° F 45.2 ° F 46.4 ° F 100% 30.15 pul 5.0 mi NE 3.5 mph - N/A   Desconocido
7:00 AM 48.2 ° F - 48.2 ° F 100% 30.15 pul - Variable 1.2 mph - N/A   Despejado
7:30 AM 50.0 ° F - 50.0 ° F 100% 30.15 pul - NO 2.3 mph - N/A   Despejado
8:00 AM 48.2 ° F - 48.2 ° F 100% 30.15 pul 6.2 mi Sin viento Sin viento - N/A   Parcialmente nublado
8:30 AM 53.6 ° F - 53.6 ° F 100% 30.18 pul 6.2 mi NE 3.5 mph - N/A   Parcialmente nublado
9:00 AM 58 ° F - 53 ° F 78% 30.20 pul 15 mi Sin viento Sin viento - -  
9:00 AM 59.0 ° F - 53.6 ° F 82% 30.18 pul - Sin viento Sin viento - N/A   Despejado
9:30 AM 62.6 ° F - 55.4 ° F 77% 30.18 pul - Sin viento Sin viento - N/A   Despejado
10:00 AM 64 ° F - 52 ° F 57% 30.21 pul 19 mi ESE 2.3 mph - -  
10:00 AM 64.4 ° F - 53.6 ° F 68% 30.18 pul - Sin viento Sin viento - N/A   Despejado
10:30 AM 66.2 ° F - 51.8 ° F 60% 30.21 pul - Sin viento Sin viento - N/A   Despejado
11:00 AM 68 ° F - 51 ° F 45% 30.21 pul 16 mi Sin viento Sin viento - -   Despejado
11:00 AM 68.0 ° F - 53.6 ° F 60% 30.21 pul - Sin viento Sin viento - N/A   Despejado
11:30 AM 69.8 ° F - 51.8 ° F 53% 30.21 pul - Sin viento Sin viento - N/A   Despejado
12:00 PM 71 ° F - 52 ° F 41% 30.21 pul 19 mi Sin viento Sin viento - -  
12:00 PM 71.6 ° F - 51.8 ° F 50% 30.21 pul - Variable 1.2 mph - N/A   Despejado
12:30 PM 71.6 ° F - 53.6 ° F 53% 30.21 pul 6.2 mi Variable 1.2 mph - N/A   Parcialmente nublado
1:00 PM 72 ° F - 55 ° F 44% 30.20 pul 19 mi SE 8.1 mph - -  
1:00 PM 71.6 ° F - 53.6 ° F 53% 30.21 pul 6.2 mi SSE 5.8 mph - N/A   Parcialmente nublado
1:30 PM 71.6 ° F - 51.8 ° F 50% 30.18 pul 6.2 mi Variable 2.3 mph - N/A   Parcialmente nublado
2:00 PM 72 ° F - 52 ° F 38% 30.19 pul 16 mi Sur 6.9 mph - -   Nubes dispersas
2:00 PM 73.4 ° F - 51.8 ° F 47% 30.18 pul 6.2 mi SSE 5.8 mph - N/A   Parcialmente nublado
2:30 PM 73.4 ° F - 50.0 ° F 44% 30.18 pul 6.2 mi SE 3.5 mph - N/A   Parcialmente nublado
3:00 PM 73 ° F - 52 ° F 37% 30.19 pul 19 mi SSE 8.1 mph - -  
3:00 PM 73.4 ° F - 51.8 ° F 47% 30.18 pul 6.2 mi SSE 6.9 mph - N/A   Parcialmente nublado
3:30 PM 73.4 ° F - 50.0 ° F 44% 30.18 pul 6.2 mi SSE 8.1 mph - N/A   Parcialmente nublado
4:00 PM 72 ° F - 54 ° F 43% 30.19 pul 16 mi SSO 10.4 mph - -  
4:00 PM 71.6 ° F - 51.8 ° F 50% 30.18 pul 6.2 mi SE 8.1 mph - N/A   Parcialmente nublado
4:30 PM 68.0 ° F - 51.8 ° F 56% 30.18 pul 6.2 mi SSO 10.4 mph - N/A   Parcialmente nublado
5:00 PM 69 ° F - 53 ° F 46% 30.20 pul 19 mi SSO 11.5 mph - -   Nubes dispersas
5:00 PM 68.0 ° F - 51.8 ° F 56% 30.18 pul 6.2 mi SO 10.4 mph - N/A   Parcialmente nublado
5:30 PM 68.0 ° F - 50.0 ° F 52% 30.18 pul 6.2 mi SSO 10.4 mph - N/A   Parcialmente nublado
6:00 PM 68 ° F - 52 ° F 46% 30.20 pul 19 mi SSO 10.4 mph - -  
6:00 PM 68.0 ° F - 51.8 ° F 56% 30.18 pul 6.2 mi SSO 9.2 mph - N/A   Parcialmente nublado
6:30 PM 68.0 ° F - 53.6 ° F 60% 30.18 pul 6.2 mi SO 9.2 mph - N/A   Parcialmente nublado
7:00 PM 68 ° F - 53 ° F 48% 30.21 pul 19 mi SO 8.1 mph - -  
7:00 PM 68.0 ° F - 53.6 ° F 60% 30.21 pul - SO 9.2 mph - N/A   Despejado
7:30 PM 66.2 ° F - 51.8 ° F 60% 30.18 pul - SO 6.9 mph - N/A   Despejado
8:00 PM 65 ° F - 52 ° F 53% 30.21 pul 19 mi SSO 6.9 mph - -   Despejado
8:30 PM 62.6 ° F - 51.8 ° F 68% 30.21 pul - SSO 2.3 mph - N/A   Despejado
9:00 PM 61 ° F - 52 ° F 64% 30.23 pul 19 mi Sin viento Sin viento - -  
9:00 PM 60.8 ° F - 51.8 ° F 72% 30.21 pul - SO 2.3 mph - N/A   Despejado
9:30 PM 59.0 ° F - 51.8 ° F 77% 30.21 pul - Sin viento Sin viento - N/A   Despejado
10:00 PM 58 ° F - 52 ° F 76% 30.25 pul 19 mi NE 4.6 mph - -  
10:00 PM 55.4 ° F - 51.8 ° F 88% 30.24 pul - NNE 3.5 mph - N/A   Despejado
10:30 PM 59.0 ° F - 53.6 ° F 82% 30.24 pul - NNE 3.5 mph - N/A   Despejado
11:00 PM 55.4 ° F - 53.6 ° F 94% 30.24 pul - NNE 2.3 mph - N/A   Despejado
11:30 PM 55.4 ° F - 53.6 ° F 94% 30.24 pul - Variable 2.3 mph - N/A   Despejado